www.pogodaiklimat.ru

Погода и климат >> Архив погоды >> Канада >> Arviat Climate


ПОГОДА в Arviat Climate

  • Прогноз погоды в Arviat Climate
  • Монитор погоды в Arviat Climate
  • Климат города

АРХИВ ПОГОДЫ в Arviat Climate

Время (UTC), дата Ветер
(напр.,м/с)
 
Видим.   Явления Облачность Т
(С)
Тd
(С)
f
(%)
Тe
(С)
Тes
(С)
Комфортность P
(гПа)
Po
(гПа)
Тmin
(С)
Tmax
(С)
R
(мм)
R24
(мм)
S
(см)
18 12.02 З 6 н/о н/о -25.4 -27.8 80 -37 -37 опасность
обморожения
1005.7 1004.4 -36.7 -24.6
21 12.02 ЮЗ 5 н/о н/о -26.3 -28.6 81 -38 -38 опасность
обморожения
1004.3 1003.0 0.2
00 13.02 ЮЗ 6 н/о н/о -24.3 -26.4 83 -37 -37 опасность
обморожения
1001.6 1000.3 -36.7 -24.3 0.2
03 13.02 ЮЗ 6 н/о н/о -22.8 -24.7 84 -34 -34 опасность
обморожения
997.1 995.8
06 13.02 ЮЗ 6 н/о н/о -21.1 -22.8 86 -32 -32 опасность
обморожения
992.2 990.9 -36.7 -21.1 0.2
09 13.02 ЮЗ 5 н/о н/о -20.8 -22.5 86 -31 -31 опасность
обморожения
988.7 987.4 0.2
12 13.02 З 5 н/о {осадки} н/о -24.4 -26.5 83 -35 -35 опасность
обморожения
986.3 985.0 -24.5 -21.1 0.2 9
15 13.02 СЗ 6 н/о н/о -28.0 -30.5 79 -41 -41 опасность
обморожения
986.2 984.9
18 13.02 СЗ 8 н/о н/о -28.8 -31.3 79 -44 -44 опасность
обморожения
987.3 986.0 -28.8 -20.5
21 13.02 СЗ 10 н/о н/о -30.2 -32.9 77 -47 -47 опасность
обморожения
990.2 988.9
00 14.02 СЗ 10 н/о н/о -31.9 -34.7 76 -49 -49 опасность
обморожения
994.2 992.9 -31.9 -24.4
03 14.02 С 9 н/о н/о -34.1 -37.2 73 -51 -51 опасность
обморожения
997.3 996.0
06 14.02 С 9 н/о н/о -35.0 -38.2 72 -53 -53 опасность
обморожения
1001.3 1000.0 -35.1 -20.5 6
09 14.02 С 8 н/о н/о -36.3 -39.6 71 -54 -54 опасность
обморожения
1006.4 1005.0
12 14.02 С 9 н/о н/о -37.7 -41.1 70 -56 -56 опасность
обморожения
1010.3 1008.9 -37.7 -20.5 11
15 14.02 СЗ 10 н/о н/о -38.8 -42.4 69 -58 -58 опасность
обморожения
1013.9 1012.5
18 14.02 СЗ 9 н/о н/о -38.0 -41.6 69 -56 -56 опасность
обморожения
1015.9 1014.5 -38.9 -35.0
21 14.02 СЗ 6 н/о н/о -36.5 -40.0 70 -51 -51 опасность
обморожения
1016.8 1015.4
00 15.02 З 5 н/о н/о -37.8 -41.3 70 -52 -52 опасность
обморожения
1015.8 1014.4 -38.9 -36.3
03 15.02 ЮЗ 6 н/о н/о -37.6 -41.2 69 -53 -53 опасность
обморожения
1013.6 1012.2
06 15.02 З 6 н/о н/о -37.2 -40.7 70 -53 -53 опасность
обморожения
1010.6 1009.2 -38.9 -35.0 17
09 15.02 З 6 н/о н/о -36.7 -40.1 71 -52 -52 опасность
обморожения
1008.1 1006.7
12 15.02 З 5 н/о н/о -37.7 -41.3 69 -52 -52 опасность
обморожения
1006.4 1005.0 -38.7 -35.0 9
15 15.02 З 7 н/о н/о -36.8 -40.3 70 -54 -54 опасность
обморожения
1004.7 1003.3
18 15.02 СЗ 9 н/о н/о -35.0 -38.4 71 -53 -53 опасность
обморожения
1003.4 1002.0 -38.7 -35.0
21 15.02 СЗ 7 н/о н/о -34.6 -37.9 72 -51 -51 опасность
обморожения
1002.9 1001.5
00 16.02 СЗ 4 н/о н/о -34.4 -37.6 73 -46 -46 опасность
обморожения
1003.1 1001.7 -38.4 -34.0
03 16.02 СЗ 3 н/о н/о -36.1 -39.5 71 -47 -47 опасность
обморожения
1002.6 1001.2
06 16.02 СЗ 5 н/о н/о -39.2 -42.9 68 -54 -54 опасность
обморожения
1002.2 1000.8 -39.2 -34.0 20
09 16.02 СЗ 5 н/о н/о -40.3 -44.1 67 -55 -55 опасность
обморожения
1002.3 1000.9
12 16.02 СЗ 6 н/о н/о -40.1 -44.0 66 -56 -56 опасность
обморожения
1002.2 1000.8 -40.6 -34.0 9
15 16.02 З 4 н/о н/о -38.8 -42.4 69 -51 -51 опасность
обморожения
1000.4 999.0
18 16.02 Ю 1 н/о н/о -35.6 -39.1 70 -40 -40 опасность
обморожения
998.2 996.8 -40.6 -35.5
21 16.02 СЗ 1 н/о {осадки} н/о -34.4 -37.9 70 -36 -36 опасность
обморожения
997.5 996.1 0.2
00 17.02 н/о {осадки} н/о -37.1 -40.7 69 998.2 996.8 -40.6 -33.2 0.2
03 17.02 С 6 н/о н/о -39.4 -43.1 68 -55 -55 опасность
обморожения
998.6 997.2
06 17.02 С 7 н/о н/о -40.3 -44.1 67 -58 -58 опасность
обморожения
999.2 997.8 -40.6 -33.2 4
09 17.02 С 8 н/о н/о -39.7 -43.5 67 -58 -58 опасность
обморожения
1000.4 999.0
12 17.02 С 8 н/о н/о -41.5 -45.4 66 -60 -60 опасность
обморожения
1002.4 1001.0 -41.6 -33.2 9
15 17.02 С 8 н/о н/о -40.1 -43.9 67 -59 -59 опасность
обморожения
1003.5 1002.1
18 17.02 С 9 н/о н/о -39.1 -42.9 67 -58 -58 опасность
обморожения
1005.0 1003.6 -41.6 -38.9
21 17.02 СЗ 10 н/о н/о -39.5 -43.3 67 -60 -60 опасность
обморожения
1007.1 1005.7
00 18.02 СЗ 10 н/о н/о -40.9 -44.9 65 -61 -61 опасность
обморожения
1009.3 1007.9 -41.6 -38.5
03 18.02 СЗ 9 н/о н/о -42.5 -46.6 64 -63 -63 опасность
обморожения
1010.0 1008.6
06 18.02 СЗ 8 н/о н/о -44.0 -48.2 63 -64 -64 опасность
обморожения
1010.5 1009.1 -44.0 -38.5 21
09 18.02 СЗ 7 н/о н/о -44.7 -49.0 62 -64 -64 опасность
обморожения
1011.6 1010.2
12 18.02 СЗ 9 н/о н/о -44.2 -48.5 62 -65 -65 опасность
обморожения
1012.4 1011.0 -44.8 -38.5 9
15 18.02 СЗ 9 н/о н/о -43.6 -47.8 63 -64 -64 опасность
обморожения
1012.8 1011.4
18 18.02 СЗ 9 н/о н/о -40.8 -44.8 65 -61 -61 опасность
обморожения
1014.1 1012.7 -44.8 -40.8
21 18.02 СЗ 9 н/о н/о -38.5 -42.3 67 -58 -58 опасность
обморожения
1015.0 1013.6
00 19.02 СЗ 5 н/о н/о -39.3 -43.0 68 -54 -54 опасность
обморожения
1015.7 1014.3 -44.8 -38.2
03 19.02 З 5 н/о н/о -40.6 -44.5 66 -56 -56 опасность
обморожения
1016.3 1014.9
06 19.02 З 5 н/о н/о -40.7 -44.6 66 -56 -56 опасность
обморожения
1016.1 1014.7 -44.8 -38.2 19
09 19.02 СЗ 4 н/о н/о -40.5 -44.4 66 -54 -54 опасность
обморожения
1016.7 1015.3
12 19.02 СЗ 7 н/о н/о -40.1 -44.0 66 -57 -57 опасность
обморожения
1016.6 1015.2 -41.1 -38.2 9
15 19.02 СЗ 7 н/о н/о -39.0 -42.8 67 -56 -56 опасность
обморожения
1017.7 1016.3

 

Местоположение метеостанции Arviat Climate (Канада): широта 61.10 долгота -94.06 высота над уровнем моря 10 м.

В архиве по умолчанию представлена погода в Arviat Climate за последнюю неделю. Архивные данные за месяц целиком и за предыдущие месяцы, начиная с января 2011 года, Вы можете получить, выбрав интересующий диапазон дат из раскрывающегося списка и нажав кнопку "Ввод!".

Внимание! Время в таблицах - всемирное. Для получения местного времени необходимо прибавить поправку, которая в Arviat Climate равна -6 ч.

Смотрите также архив погоды в соседних городах и на ближайших метеорологических станциях:

Погода в Arviat Airport (Канада) (1 км)
Погода в Rankin Inlet (Канада) (217 км)
Погода в Churchill Climate (Канада) (265 км)
Погода в Tadoule Lake (Канада) (362 км)
Погода в Baker Lake Airport (Канада) (370 км)
Погода в Baker Lake Climate (Канада) (372 км)
Погода в Dubawnt Lake (Канада) (462 км)
Погода в Gillam (Канада) (530 км)
Погода в Back River MAPS (Канада) (567 км)
Погода в Wager Bay (Канада) (579 км)

Пояснения к столбцам:

Ветер - указаны скорость ветра в м/с - средняя за 10 мин, порывы в срок и между сроками (в фигурных скобках) и направление, откуда дует ветер: С - северный, СВ - северо-восточный, В - восточный, ЮВ - юго-восточный, Ю - южный, ЮЗ - юго-западный, З - западный, СЗ - северо-западный.
Видимость - горизонтальная дальность видимости в метрах или километрах. При видимости от 1 до 10 км при отсутствии осадков обычно наблюдается дымка, при ухудшении видимости до 1 км и менее - туман. В сухую погоду видимость может ухудшаться дымом, пылью или мглою.
Явления - указаны атмосферные явления, наблюдавшиеся в срок или в последний час перед сроком; фигурными скобками обозначены явления, наблюдавшиеся между сроками (за 1-3 часа до срока); квадратными скобками обозначены град или гололедные отложения с указанием их диаметра в мм.
Облачность - указаны через наклонную черту общая и нижняя облачность в баллах и высота нижней границы облаков в метрах; квадратными скобками обозначены формы облаков: Ci - перистые, Cs - перисто-слоистые, Cc - перисто-кучевые, Ac - высококучевые, As - высокослоистые, Sc - слоисто-кучевые, Ns - слоисто-дождевые, Cu - кучевые, Cb - кучево-дождевые. Подробнее классификацию облаков см. в Атласе облаков (PDF).
T - Температура воздуха - температура, измеренная на высоте 2 м над землей.
Td - Температура точки росы - температура, при понижении до которой содержащийся в воздухе водяной пар достигнет насыщения.
f - Относительная влажность воздуха - влажноcть воздуха, измеренная на высоте 2 м над землей.
Te - Эффективная температура - температура, которую ощущает одетый по сезону человек в тени. Характеристика душности погоды. При расчете учитывается влияние влажности воздуха и скорости ветра на теплоощущения человека.
Tes - Эффективная температура на солнце - температура, которую ощущает человек, с поправкой на солнечный нагрев. Характеристика знойности погоды. Зависит от высоты солнца над горизонтом, облачности и скорости ветра. Ночью, в пасмурную погоду, а также при ветре 12 м/с и более поправка равна нулю.
P - Атмосферное давление - приведенное к уровню моря атмосферное давление.
Po - Атмосферное давление - измеренное на уровне метеостанции атмосферное давление.
Tmin - Минимальная температура - минимум температуры воздуха на высоте 2 м над землей.
Tmax - Максимальная температура - максимум температуры воздуха на высоте 2 м над землей.
R - Количество осадков - Количество выпавших осадков за период времени, мм. При наведении курсора мыши на число - период времени, за который выпало указанное количество осадков.
R24 - Количество осадков - Количество выпавших осадков за 24 часа, мм.
S - Снежный покров - Высота снежного покрова, см. При наведении курсора мыши на число - состояние снежного покрова и степень покрытия местности в баллах.